Location: Ammareddip?lem
(16.9681°N, 80.4999°E)
Time: 19:43:51
(UTC+00:00)

Hubble Space Telescope - Visible Passes

Search period start: 19 October 2021 00:00
Search period end: 29 October 2021 00:00
Orbit: 535 x 538 km, 28.5° (Epoch: 19 October)

Date Brightness Start Highest point End Pass type
(mag) Time Alt. Az. Time Alt. Az. Time Alt. Az.
19 Oct 3.0 22:27:57 22° ENE 22:27:57 22° ENE 22:29:57 10° E visible
20 Oct 0.8 00:03:27 10° WNW 00:07:34 70° SSW 00:11:40 10° ESE visible
20 Oct 3.4 22:17:45 19° ENE 22:17:45 19° ENE 22:19:07 10° E visible
20 Oct 1.1 23:53:05 14° W 23:56:28 51° SSW 00:00:29 10° SE visible
21 Oct 3.1 13:34:44 10° S 13:35:54 13° SSE 13:35:54 13° SSE visible
21 Oct 3.8 22:07:35 14° E 22:07:35 14° E 22:08:14 10° E visible
21 Oct 1.6 23:42:55 19° W 23:45:22 37° SSW 23:49:12 10° SE visible
22 Oct 2.5 13:22:47 10° SSW 13:25:39 18° SSE 13:25:47 18° SSE visible
22 Oct 2.0 23:32:47 22° WSW 23:34:15 27° SSW 23:37:47 10° SSE visible
23 Oct 2.1 13:11:10 10° SSW 13:14:32 24° SSE 13:15:38 22° SE visible
23 Oct 2.4 23:22:39 20° SW 23:23:09 20° SSW 23:26:14 10° SSE visible
24 Oct 1.7 12:59:42 10° SW 13:03:26 33° SSE 13:05:28 21° ESE visible
24 Oct 4.0 14:40:32 10° W 14:40:47 12° W 14:40:47 12° W visible
24 Oct 2.9 23:12:31 15° SSW 23:12:31 15° SSW 23:14:26 10° S visible
25 Oct 1.3 12:48:23 10° SW 12:52:19 45° SSE 12:55:15 16° E visible
25 Oct 3.6 14:29:37 10° W 14:30:34 16° W 14:30:34 16° W visible
26 Oct 0.9 12:37:10 10° SW 12:41:13 63° SSE 12:45:00 12° ENE visible
26 Oct 3.2 14:18:46 10° W 14:20:18 19° WNW 14:20:18 19° WNW visible
27 Oct 0.8 12:26:01 10° WSW 12:30:08 85° SSE 12:34:14 10° ENE visible
27 Oct 2.9 14:07:57 10° WNW 14:10:00 21° NW 14:10:00 21° NW visible
28 Oct 2.7 13:57:10 10° WNW 13:59:38 22° NNW 13:59:38 22° NNW visible
